Regional Weather Roundup
Issued by NWS Little Rock, AR

Home | Current Version | Previous Version | Graphics & Text | Print | Product List | Glossary On
Versions: 1 2 3 4 5 6 7 8 9 10 11 12 13 14 15 16 17 18 19 20 21 22 23 24 25 26 27 28 29 30 31 32 33 34 35 36 37 38 39 40 41 42 43 44 45 46 47 48 49 50
000
ASUS44 KLZK 121105
RWRLZK

WEATHER ROUNDUP FOR ARKANSAS
NATIONAL WEATHER SERVICE LITTLE ROCK AR
600 AM CDT SAT JUL 12 2014

NOTE: "FAIR" INDICATES FEW OR NO CLOUDS BELOW 12,000 FEET WITH NO
SIGNIFICANT WEATHER AND/OR OBSTRUCTIONS TO VISIBILITY.

ARZ001-003-010-029-121200-
NORTHWEST ARKANSAS

CITY           SKY/WX    TMP DP  RH WIND       PRES   REMARKS
FAYETTEVILLE   CLEAR     67  67 100 CALM      30.18R
FORT SMITH     CLEAR     75  72  90 NE3       30.13R
HARRISON       CLEAR     73  68  84 CALM      30.17R
BENTONVILLE    CLEAR     72  66  83 S3        30.18R
ROGERS         CLEAR     74  67  78 S12       30.18R
SILOAM SPGS    CLEAR     72  63  73 S6        30.18R
HIGHFILL       CLEAR     70  69  97 CALM      30.17R
SPRINGDALE     CLEAR     73  68  83 S7        30.19
$$

ARZ004-005-016-121200-
NORTH CENTRAL ARKANSAS

CITY           SKY/WX    TMP DP  RH WIND       PRES   REMARKS
BATESVILLE     MOCLDY    75  72  88 SW6       30.14R
FLIPPIN        CLEAR     73  70  88 CALM      30.14R
MTN HOME       CLEAR     72  72 100 CALM      30.14R FOG
$$

ARZ040-041-121200-
WEST CENTRAL ARKANSAS

CITY           SKY/WX    TMP DP  RH WIND       PRES   REMARKS
MENA           CLEAR     72 N/A N/A CALM      30.18R
MOUNT IDA      CLEAR     71  70  96 CALM      30.14S FOG
$$

ARZ009-017-025-026-028-121200-
NORTHEAST ARKANSAS

CITY           SKY/WX    TMP DP  RH WIND       PRES   REMARKS
CORNING        FAIR      73  73 100 S3        30.14R FOG
JONESBORO      PTCLDY    74  72  93 CALM      30.14R
NEWPORT        MOCLDY    74  73  96 E13       30.15R
WALNUT RIDGE   CLEAR     73  72  94 S5        30.14R
BLYTHEVILLE    PTCLDY    72  72 100 S3        30.15R FOG
$$

ARZ022-023-033-042-044-121200-
CENTRAL ARKANSAS

CITY           SKY/WX    TMP DP  RH WIND       PRES   REMARKS
LITTLE ROCK    PTCLDY    75  72  90 SW3       30.15R FOG
N LITTLE ROCK    N/A     75  73  94 SW5       30.15R
JACKSONVILLE   CLEAR     71  71  99 NE3       30.15R
SEARCY         PTCLDY    73  73 100 CALM      30.15S FOG
HOT SPRINGS    CLEAR     73  70  90 CALM      30.16S
RUSSELLVILLE   FOG       74  72  93 CALM      30.15R VSB 1
CLINTON        CLOUDY    73  73 100 CALM      30.15S FOG
$$

ARZ036-121200-
EAST ARKANSAS

CITY           SKY/WX    TMP DP  RH WIND       PRES   REMARKS
WEST MEMPHIS   FOG       71  71 100 CALM      30.14R VSB 1/4
$$

ARZ050-053-066-070-073-121200-
SOUTHWEST ARKANSAS

CITY           SKY/WX    TMP DP  RH WIND       PRES   REMARKS
CAMDEN         CLEAR     68  66  94 CALM      30.14S FOG
TEXARKANA      CLEAR     75  71  87 S5        30.14R
EL DORADO      CLEAR     71  69  93 CALM      30.14S
DE QUEEN       FOG       71  70  96 CALM      30.12S VSB 1/4
$$

ARZ056-057-069-121200-
SOUTHEAST ARKANSAS

CITY           SKY/WX    TMP DP  RH WIND       PRES   REMARKS
PINE BLUFF     CLEAR     72  70  93 CALM      30.15R
MONTICELLO     CLEAR     71  69  93 CALM      30.15R

$$





USA.gov is the U.S. government's official web portal to all federal, state and local government web resources and services.